Weather in Shabrovsky

Russia / Sverdlovsk Oblast     56°38′22″N   60°34′27″E
temp.,
°C
wind,
m/s
gust,
m/s
humid.,
%
clouds,
%
prec.,
mm/h
press.,
hPa
HPBL,
m
25 january, tue
tue2523:00−12w3109330 0.0 1034262
02:00−12w3119325 0.0 1033260
05:00−11wsw41391100 0.0 1032347
08:00−9w51586100 0.0 1029438
11:00−9w51685100 0.0 1028447
14:00−7w5158396 0.0 1027483
17:00−9w5148635 0.0 1027429
20:00−11w5148579 0.0 1027350
26 january, wed
wed2623:00−11w4138471 0.0 1027317
02:00−12w412815 0.0 1027267
05:00−12w3128211 0.0 1027227
08:00−17sw229266 0.0 102731
11:00−12sw2787100 0.0 1026155
14:00−6wsw258069 0.0 1025266
17:00−10s1195100 0.0 102510
20:00−15ssw1198100 0.0 10259
27 january, thu
thu2723:00−16sse1198100 0.0 10249
02:00−18se1199100 0.0 102210
05:00−19s2110099 0.0 102116
08:00−13sw289220 0.0 1019142
11:00−7wsw41186100 0.0 1020561
14:00−6sw4108395 0.0 1020736
17:00−8sw388676 0.0 1021296
20:00−9wsw31088100 0.0 1022433
28 january, fri
fri2823:00−9wsw3990100 0.0 1022350
02:00−10wsw389186 0.0 1022318
05:00−15sw229840 0.0 102421
08:00−17sw229851 0.0 102415
11:00−12wsw2692100 0.0 1024137
14:00−7sw238378 0.0 1023349
17:00−11sse119658 0.0 102310
20:00−15s1199100 0.0 10249
29 january, sat
sat2923:00−15se0099100 0.0 102310
02:00−14ese1197100 0.0 102233
05:00−11ese1496100 0.3 1021124
08:00−12ese2698100 0.1 1020150
11:00−11se2596100 0.1 1020188
14:00−8se3588100 0.0 1018293
17:00−10ese1197100 0.0 101734
20:00−15sse119999 0.0 10179